Location: Unspecified
(0.0000°N, 0.0000°E)
Time: 01:29:19
(UTC+00:00)

deb Explorer IX - Pass Details

Date: 25 November 2019
Orbit: 546 x 1104 km, 38.8° (Epoch: 11 December)

Event Time Altitude Azimuth Distance (km) Brightness Sun altitude
Rises 19:53:01 0° 253° (WSW) 3,711 ? -29.2°
Reaches altitude 10° 19:55:59 10° 264° (W) 2,828 ? -29.9°
Maximum altitude 20:01:51 29° 321° (NW) 1,880 ? -31.2°
Enters shadow 20:03:09 27° 339° (NNW) 1,950 ? -31.5°
Drops below altitude 10° 20:07:58 10° 18° (NNE) 2,949 - -32.6°
Sets 20:11:10 0° 29° (NNE) 3,895 - -33.4°
